Location: *
(28.2408°N, 53.4600°E)
Time: 15:01:54
(UTC+00:00)

Lacrosse 5 - Pass Details

Date: 22 September 2019
Orbit: 715 x 724 km, 57.0° (Epoch: 16 October)

Event Time Altitude Azimuth Distance (km) Brightness Sun altitude
Rises 14:51:18 0° 173° (S) 3,104 5.0 -7.0°
Reaches altitude 10° 14:54:41 10° 150° (SSE) 2,187 4.0 -7.7°
Maximum altitude 14:57:25 15° 116° (ESE) 1,882 3.5 -8.3°
Enters shadow 14:59:56 11° 85° (E) 2,143 3.7 -8.9°
